Showing default

HTV-X1, 66174

Orbit data source: Space-Track

HTV-X1, 66174 is a payload satellite owned by JAXA (JP) in LEO that was launched on Sun, 26 Oct 2025 UTC via a H3-24W launch vehicle from the Tanegashima Space Center (TNSTA). Payload-class satellites include a variety of spacecraft equipped with specific instruments for various scientific and technological missions. These include communications satellites like Starlink; space stations such as the ISS; scientific satellites like the Hubble; Earth observation satellites from companies like Planet Labs, Umbra, and HawkEye 360; GPS; miniature CubeSats for education and research; and military/defense satellites.

Loading next visibility...
Identifier
66174, 2025-241A
Orbit
LEO
Country
Flag of JPJP / JPN
Related business
Manufacturer
MHITO?
Mission
Operational Civil Spaceship
Bus & Motor
HTV-X, HBT-5 X 4
Mass
16,000 kg wet, 7,600 kg dry
Launch date (UTC)
2025-10-26 (4 months ago)
Launch vehicle
H3-24W
Launch site
Tanegashima Space Center (TNSTA)
Object type
Payload
Rocket body
Debris
Shape & HBR
Cyl + 2 Pan, 14.5 m
Radar Cross Section
51.510 m²

Expand to show TLE details & history
Last TLE update: 14 hours ago

TLE from 14 hours ago
0 HTV-X1
1 66174U 25241A   26061.54331036  .00009842  00000-0  19033-3 0  9990
2 66174  51.6317 107.6867 0008241 149.4104 210.7366 15.48401384554942
Epoch: 2026-03-02T13:02Z
TLE epoch observation values (Epoch: 2026-03-02T13:02:22.015Z)
Latitude
-0.00001°
Longitude
111.75975°
Altitude
426.959 km
Speed
7.654 km/s
True Right ascension
07h 10m 44s
True Declination
0° 00' 00"
Sunlit
Object was in full shadow at epoch
Visualization orbit readout
Latitude
Unknown
Longitude
Unknown
Altitude
Unknown
Speed
Unknown
Apparent Right ascension
Unknown
Apparent Declination
Unknown
Sunlit
N/A
Visualization observer readout
Local Sidereal Time
06:58:33
Azimuth
Unknown
Elevation
Unknown
Doppler factor
Unknown
Orbital elements
Apogee altitude
427.515 km
Perigee altitude
416.307 km
Semi-major axis
6,800.048 km
Eccentricity
0.00082
Inclination
51.6317°
RAAN
107.6867°
Arg. of periapsis
149.4104°
True anomaly
210.68838°
Mean anomaly
210.7366°
Eccentric anomaly
210.71248°
Mean motion
3.87057 °/min
Orbital period
93.01 mins
BSTAR
0.00019033
Loading maneuver chart data...
Computing Atmospheric mass density...
Loading historical data...
Loading historical data...
Loading historical data...
Loading historical data...
Loading historical data...
Loading historical data...
Loading historical data...
Other satellites on launch #241 in the year 2025 (2025-10-26 UTC)

Documentation

Showing up to 5 results
|